WXM80 ListenWXM80 Stop

You find our weather info also at:

UK Metoffice

WeatherCloud

Weather Underground

Northeastern Weather Network

AWEKAS

Citizen Weather Observer Program (CWOP)

HAMweather, WeatherForYou, PWS Weather


Weather Underground History page Text

Daily Summary for January 5, 2017 Units:  Metric    English   Both
« Previous Day
Next Day »
Daily Weekly Monthly Yearly Custom
  High: Low: Average:
Temperature: 1.9 °C -2 °C -0.4 °C
Dew Point: -7.3 °C -10.9 °C -9.1 °C
Humidity: 58 % 47 % 52 %
Wind Speed: 18.5 km/h 0 km/h 7.7 km/h
Wind Gust: 46.7 km/h - -
Wind:- - WSW
Pressure: 1014.8 hPa 1004.6 hPa -
Precipitation: 0 mm    
Historical Graphs
 
 
Tabular Data for January 5, 2017
Time Temperature Dew Point Pressure Wind Wind Speed Wind Gust Humidity Rainfall Rate (Hourly)
00:02 1.9 °C -8 °C 1004.6 hPa South 16.9 km/h 46.7 km/h 48 % 0 mm
00:07 1.8 °C -8.1 °C 1005 hPa WNW 16.6 km/h 46.7 km/h 48 % 0 mm
00:12 1.7 °C -8.1 °C 1004.6 hPa West 18.5 km/h 46.7 km/h 48 % 0 mm
00:17 1.7 °C -7.9 °C 1005 hPa SW 6 km/h 46.7 km/h 49 % 0 mm
00:23 1.6 °C -7.7 °C 1005 hPa West 12.2 km/h 46.7 km/h 50 % 0 mm
00:28 1.6 °C -7.8 °C 1005.3 hPa NW 11.9 km/h 46.7 km/h 50 % 0 mm
00:33 1.5 °C -7.8 °C 1005.3 hPa NW 15.8 km/h 46.7 km/h 50 % 0 mm
00:38 1.4 °C -7.6 °C 1005.3 hPa West 12.6 km/h 46.7 km/h 51 % 0 mm
00:43 1.4 °C -7.7 °C 1005.3 hPa West 8.2 km/h 46.7 km/h 51 % 0 mm
00:48 1.3 °C -7.7 °C 1005.6 hPa WSW 11.3 km/h 46.7 km/h 51 % 0 mm
00:53 1.2 °C -8.3 °C 1005.6 hPa West 8.7 km/h 46.7 km/h 49 % 0 mm
00:58 1.2 °C -8.1 °C 1005.6 hPa South 13.4 km/h 46.7 km/h 50 % 0 mm
01:03 1.2 °C -8.1 °C 1006 hPa SW 17.7 km/h 46.7 km/h 50 % 0 mm
01:08 1.2 °C -8.1 °C 1006 hPa SW 15.4 km/h 46.7 km/h 50 % 0 mm
01:13 1.1 °C -7.9 °C 1006 hPa WSW 17.2 km/h 46.7 km/h 51 % 0 mm
01:18 1.1 °C -8.2 °C 1006 hPa WNW 12.9 km/h 46.7 km/h 50 % 0 mm
01:23 1 °C -8.3 °C 1006 hPa WNW 10 km/h 46.7 km/h 50 % 0 mm
01:28 0.9 °C -8.1 °C 1006.3 hPa WNW 9.2 km/h 46.7 km/h 51 % 0 mm
01:33 0.9 °C -7.9 °C 1006.7 hPa WSW 15 km/h 46.7 km/h 52 % 0 mm
01:38 0.9 °C -7.6 °C 1006.7 hPa WSW 9.3 km/h 46.7 km/h 53 % 0 mm
01:43 0.8 °C -7.7 °C 1006.3 hPa West 7.2 km/h 46.7 km/h 53 % 0 mm
01:49 0.8 °C -7.5 °C 1006.7 hPa WSW 15.1 km/h 46.7 km/h 54 % 0 mm
01:54 0.7 °C -7.8 °C 1006.7 hPa WSW 12.7 km/h 46.7 km/h 53 % 0 mm
01:59 0.7 °C -8.1 °C 1006.7 hPa WSW 12.2 km/h 46.7 km/h 52 % 0 mm
02:04 0.6 °C -7.9 °C 1006.7 hPa WSW 13.2 km/h 46.7 km/h 53 % 0 mm
02:09 0.6 °C -8.2 °C 1006.7 hPa SW 14.2 km/h 46.7 km/h 52 % 0 mm
02:14 0.5 °C -8.2 °C 1006.7 hPa WNW 15.6 km/h 46.7 km/h 52 % 0 mm
02:19 0.5 °C -8.2 °C 1006.7 hPa WSW 7.9 km/h 46.7 km/h 52 % 0 mm
02:24 0.4 °C -8.1 °C 1007 hPa WNW 12.7 km/h 46.7 km/h 53 % 0 mm
02:29 0.3 °C -8.4 °C 1007 hPa West 14.5 km/h 25.7 km/h 52 % 0 mm
02:34 0.3 °C -8.2 °C 1007 hPa West 12.9 km/h 19.3 km/h 53 % 0 mm
02:39 0.3 °C -8.2 °C 1006.7 hPa West 9.7 km/h 25.7 km/h 53 % 0 mm
02:44 0.2 °C -8.3 °C 1006.7 hPa West 14.5 km/h 25.7 km/h 53 % 0 mm
02:49 0.1 °C -8.3 °C 1006.7 hPa West 8 km/h 22.5 km/h 53 % 0 mm
02:54 0.1 °C -8.4 °C 1007 hPa West 12.9 km/h 24.1 km/h 53 % 0 mm
02:59 0.1 °C -8.2 °C 1007.3 hPa WSW 13.4 km/h 46.7 km/h 54 % 0 mm
03:04 0.1 °C -7.9 °C 1007.7 hPa WSW 11.3 km/h 32.2 km/h 55 % 0 mm
03:09 0 °C -7.5 °C 1007.7 hPa WSW 8 km/h 16.1 km/h 57 % 0 mm
03:14 0 °C -7.8 °C 1007.7 hPa WSW 14.5 km/h 29 km/h 56 % 0 mm
03:19 -0.1 °C -7.6 °C 1007.7 hPa WSW 14.3 km/h 46.7 km/h 57 % 0 mm
03:24 -0.1 °C -7.8 °C 1008 hPa WSW 9.7 km/h 25.7 km/h 56 % 0 mm
03:29 -0.2 °C -7.9 °C 1008 hPa WSW 14.5 km/h 32.2 km/h 56 % 0 mm
03:34 -0.2 °C -7.7 °C 1008.4 hPa WSW 11.3 km/h 25.7 km/h 57 % 0 mm
03:39 -0.3 °C -8.2 °C 1008.4 hPa WSW 12.9 km/h 25.7 km/h 55 % 0 mm
03:44 -0.3 °C -8.1 °C 1008.4 hPa SW 9.7 km/h 25.7 km/h 56 % 0 mm
03:49 -0.4 °C -8.1 °C 1008.4 hPa West 14.3 km/h 46.7 km/h 56 % 0 mm
03:54 -0.4 °C -8.4 °C 1008.4 hPa SW 4.8 km/h 25.7 km/h 55 % 0 mm
03:59 -0.5 °C -8.4 °C 1008.7 hPa West 11.9 km/h 46.7 km/h 55 % 0 mm
04:04 -0.6 °C -8.3 °C 1008.7 hPa West 14.5 km/h 46.7 km/h 56 % 0 mm
04:09 -0.6 °C -8.1 °C 1008.7 hPa SW 8 km/h 46.7 km/h 57 % 0 mm
04:14 -0.6 °C -8.3 °C 1009 hPa West 8.7 km/h 46.7 km/h 56 % 0 mm
04:19 -0.6 °C -8.3 °C 1008.7 hPa SW 8.5 km/h 46.7 km/h 56 % 0 mm
04:24 -0.7 °C -8.4 °C 1008.7 hPa WSW 7.4 km/h 46.7 km/h 56 % 0 mm
04:29 -0.7 °C -8.8 °C 1009 hPa West 11.6 km/h 46.7 km/h 54 % 0 mm
04:35 -0.7 °C -9.1 °C 1009.4 hPa West 13.4 km/h 46.7 km/h 53 % 0 mm
04:40 -0.7 °C -8.9 °C 1009 hPa WSW 9.2 km/h 46.7 km/h 54 % 0 mm
04:45 -0.7 °C -8.9 °C 1009 hPa WSW 12.1 km/h 46.7 km/h 54 % 0 mm
04:50 -0.8 °C -8.9 °C 1009 hPa WSW 15.9 km/h 46.7 km/h 54 % 0 mm
04:55 -0.8 °C -9.2 °C 1009.4 hPa WSW 10.5 km/h 46.7 km/h 53 % 0 mm
05:00 -0.9 °C -9.3 °C 1009.4 hPa WNW 10.3 km/h 46.7 km/h 53 % 0 mm
05:05 -0.9 °C -9.6 °C 1009.7 hPa West 10.6 km/h 46.7 km/h 52 % 0 mm
05:10 -1 °C -9.6 °C 1009.7 hPa SW 9.7 km/h 46.7 km/h 52 % 0 mm
05:15 -1.1 °C -9.7 °C 1010 hPa WNW 15 km/h 46.7 km/h 52 % 0 mm
05:20 -1.1 °C -9.9 °C 1010 hPa WSW 14.8 km/h 46.7 km/h 51 % 0 mm
05:25 -1.2 °C -10.6 °C 1010 hPa West 14 km/h 46.7 km/h 49 % 0 mm
05:30 -1.2 °C -10.6 °C 1010 hPa WSW 15.6 km/h 46.7 km/h 49 % 0 mm
05:35 -1.3 °C -10.9 °C 1010.4 hPa West 16.7 km/h 46.7 km/h 48 % 0 mm
05:41 -1.3 °C -10.7 °C 1010.7 hPa WSW 16.4 km/h 46.7 km/h 49 % 0 mm
05:46 -1.4 °C -10.7 °C 1010.4 hPa West 6.8 km/h 46.7 km/h 49 % 0 mm
05:51 -1.4 °C -10.6 °C 1010.7 hPa West 3.9 km/h 46.7 km/h 50 % 0 mm
05:56 -1.4 °C -10.1 °C 1010.7 hPa West 13.8 km/h 46.7 km/h 52 % 0 mm
06:01 -1.4 °C -9.6 °C 1010.7 hPa West 6.3 km/h 46.7 km/h 54 % 0 mm
06:06 -1.5 °C -9.4 °C 1011.1 hPa SW 14.5 km/h 46.7 km/h 55 % 0 mm
06:11 -1.6 °C -9.4 °C 1011.1 hPa WSW 9 km/h 46.7 km/h 55 % 0 mm
06:16 -1.6 °C -9.2 °C 1011.4 hPa WSW 10.9 km/h 46.7 km/h 56 % 0 mm
06:21 -1.6 °C -9.7 °C 1011.4 hPa SW 18.3 km/h 46.7 km/h 54 % 0 mm
06:26 -1.7 °C -9.8 °C 1011.4 hPa WSW 14.3 km/h 46.7 km/h 54 % 0 mm
06:31 -1.7 °C -9.8 °C 1011.4 hPa WSW 10.5 km/h 46.7 km/h 54 % 0 mm
06:36 -1.7 °C -10 °C 1011.7 hPa WSW 4.8 km/h 46.7 km/h 53 % 0 mm
06:41 -1.7 °C -9.8 °C 1011.4 hPa West 9.3 km/h 46.7 km/h 54 % 0 mm
06:47 -1.8 °C -10.1 °C 1011.7 hPa WSW 3.9 km/h 46.7 km/h 53 % 0 mm
06:52 -1.8 °C -9.7 °C 1011.7 hPa WSW 8.4 km/h 46.7 km/h 55 % 0 mm
06:57 -1.8 °C -9.7 °C 1011.7 hPa WSW 12.9 km/h 46.7 km/h 55 % 0 mm
07:02 -1.9 °C -10 °C 1011.7 hPa South 8.5 km/h 46.7 km/h 54 % 0 mm
07:07 -1.9 °C -10.1 °C 1012.1 hPa SW 13.4 km/h 46.7 km/h 54 % 0 mm
07:12 -1.9 °C -10.1 °C 1012.1 hPa SSW 15.8 km/h 46.7 km/h 54 % 0 mm
07:17 -1.9 °C -10.1 °C 1012.4 hPa WSW 10.9 km/h 46.7 km/h 54 % 0 mm
07:22 -2 °C -9.8 °C 1012.4 hPa SSW 12.6 km/h 46.7 km/h 55 % 0 mm
07:27 -2 °C -9.6 °C 1012.4 hPa WNW 10.1 km/h 46.7 km/h 56 % 0 mm
07:32 -2 °C -10.1 °C 1012.8 hPa West 14.2 km/h 46.7 km/h 54 % 0 mm
07:37 -2 °C -9.8 °C 1012.8 hPa WNW 6.6 km/h 46.7 km/h 55 % 0 mm
07:42 -1.9 °C -9.6 °C 1012.8 hPa WSW 12.6 km/h 46.7 km/h 56 % 0 mm
07:47 -1.9 °C -9.6 °C 1012.4 hPa WNW 8.9 km/h 46.7 km/h 56 % 0 mm
07:53 -1.9 °C -9.5 °C 1012.4 hPa SW 14.3 km/h 46.7 km/h 56 % 0 mm
07:58 -1.9 °C -9.7 °C 1012.4 hPa WNW 10.9 km/h 46.7 km/h 55 % 0 mm
08:03 -1.9 °C -9.5 °C 1012.4 hPa WNW 10.1 km/h 46.7 km/h 56 % 0 mm
08:08 -1.9 °C -9.7 °C 1012.8 hPa WSW 13.7 km/h 46.7 km/h 55 % 0 mm
08:13 -1.9 °C -9.7 °C 1012.8 hPa West 10.6 km/h 46.7 km/h 55 % 0 mm
08:18 -1.9 °C -9.8 °C 1012.8 hPa SW 10.3 km/h 46.7 km/h 55 % 0 mm
08:23 -1.9 °C -9.8 °C 1012.8 hPa West 12.4 km/h 46.7 km/h 55 % 0 mm
08:28 -1.9 °C -9.8 °C 1012.8 hPa SW 12.2 km/h 46.7 km/h 55 % 0 mm
08:33 -1.9 °C -9.8 °C 1012.8 hPa NW 7.4 km/h 46.7 km/h 55 % 0 mm
08:38 -1.9 °C -9.7 °C 1012.8 hPa SW 7.7 km/h 46.7 km/h 55 % 0 mm
08:43 -1.9 °C -9.7 °C 1012.8 hPa WNW 7.4 km/h 46.7 km/h 55 % 0 mm
08:48 -1.8 °C -9.9 °C 1012.8 hPa West 12.9 km/h 46.7 km/h 54 % 0 mm
08:54 -1.8 °C -9.7 °C 1012.8 hPa West 4.8 km/h 46.7 km/h 55 % 0 mm
08:59 -1.8 °C -9.7 °C 1013.1 hPa NW 6.3 km/h 46.7 km/h 55 % 0 mm
09:04 -1.7 °C -10.1 °C 1013.1 hPa West 12.2 km/h 46.7 km/h 53 % 0 mm
09:09 -1.7 °C -10 °C 1013.1 hPa West 8.5 km/h 46.7 km/h 53 % 0 mm
09:14 -1.7 °C -9.8 °C 1013.4 hPa WSW 10 km/h 46.7 km/h 54 % 0 mm
09:19 -1.6 °C -10.2 °C 1013.4 hPa WNW 7.1 km/h 46.7 km/h 52 % 0 mm
09:24 -1.6 °C -9.9 °C 1013.8 hPa West 3.9 km/h 46.7 km/h 53 % 0 mm
09:29 -1.4 °C -9.8 °C 1013.8 hPa WSW 15.9 km/h 46.7 km/h 53 % 0 mm
09:34 -1.4 °C -10 °C 1014.1 hPa WSW 7.7 km/h 46.7 km/h 52 % 0 mm
09:39 -1.3 °C -9.7 °C 1014.1 hPa WSW 8 km/h 24.1 km/h 53 % 0 mm
09:44 -1.3 °C -9.9 °C 1014.4 hPa WSW 11.3 km/h 27.4 km/h 52 % 0 mm
09:49 -1.3 °C -9.9 °C 1014.4 hPa WSW 9.7 km/h 27.4 km/h 52 % 0 mm
09:54 -1.3 °C -9.9 °C 1014.8 hPa West 10.5 km/h 46.7 km/h 52 % 0 mm
09:59 -1.3 °C -9.9 °C 1014.4 hPa West 4 km/h 46.7 km/h 52 % 0 mm
10:04 -1.3 °C -10.1 °C 1014.4 hPa West 9.3 km/h 46.7 km/h 51 % 0 mm
10:09 -1.2 °C -9.8 °C 1014.8 hPa West 13.8 km/h 46.7 km/h 52 % 0 mm
10:14 -1.2 °C -10.1 °C 1014.4 hPa SW 12.1 km/h 46.7 km/h 51 % 0 mm
10:19 -1.2 °C -9.8 °C 1014.4 hPa West 14.6 km/h 46.7 km/h 52 % 0 mm
10:25 -1.1 °C -10.2 °C 1014.1 hPa WNW 5.6 km/h 46.7 km/h 50 % 0 mm
10:30 -1.1 °C -9.9 °C 1014.1 hPa West 14.3 km/h 46.7 km/h 51 % 0 mm
10:35 -1.1 °C -10.2 °C 1014.4 hPa WNW 14.5 km/h 46.7 km/h 50 % 0 mm
10:40 -1 °C -10.1 °C 1014.4 hPa West 10.9 km/h 46.7 km/h 50 % 0 mm
10:45 -0.9 °C -9.8 °C 1014.1 hPa West 7.7 km/h 46.7 km/h 51 % 0 mm
10:50 -0.8 °C -9.7 °C 1013.8 hPa WSW 14 km/h 46.7 km/h 51 % 0 mm
10:55 -0.8 °C -10 °C 1013.8 hPa WNW 5.8 km/h 46.7 km/h 50 % 0 mm
11:00 -0.8 °C -10 °C 1013.4 hPa West 10.5 km/h 46.7 km/h 50 % 0 mm
11:05 -0.8 °C -10.2 °C 1013.4 hPa NW 8.7 km/h 46.7 km/h 49 % 0 mm
11:10 -0.8 °C -9.9 °C 1013.4 hPa West 10.8 km/h 46.7 km/h 50 % 0 mm
11:15 -0.7 °C -9.9 °C 1013.1 hPa West 3.1 km/h 46.7 km/h 50 % 0 mm
11:20 -0.7 °C -9.8 °C 1013.1 hPa West 6.3 km/h 46.7 km/h 50 % 0 mm
11:25 -0.6 °C -9.7 °C 1013.1 hPa WSW 8.4 km/h 46.7 km/h 50 % 0 mm
11:30 -0.6 °C -9.7 °C 1013.1 hPa West 6.9 km/h 46.7 km/h 50 % 0 mm
11:35 -0.6 °C -9.7 °C 1013.1 hPa WNW 10.6 km/h 46.7 km/h 50 % 0 mm
11:40 -0.6 °C -9.8 °C 1012.8 hPa West 11.3 km/h 46.7 km/h 50 % 0 mm
11:45 -0.6 °C -9.7 °C 1012.8 hPa NW 3.9 km/h 46.7 km/h 50 % 0 mm
11:50 -0.5 °C -9.7 °C 1012.8 hPa WNW 1.6 km/h 46.7 km/h 50 % 0 mm
11:55 -0.4 °C -9.6 °C 1012.8 hPa WSW 5.5 km/h 46.7 km/h 50 % 0 mm
12:01 -0.3 °C -10.1 °C 1012.8 hPa West 8 km/h 46.7 km/h 48 % 0 mm
12:06 -0.3 °C -9.8 °C 1013.1 hPa West 7.6 km/h 46.7 km/h 49 % 0 mm
12:11 -0.3 °C -9.8 °C 1013.1 hPa NNW 12.6 km/h 46.7 km/h 49 % 0 mm
12:16 -0.3 °C -9.8 °C 1013.1 hPa WNW 7.7 km/h 46.7 km/h 49 % 0 mm
12:21 -0.3 °C -9.4 °C 1012.8 hPa WSW 9.7 km/h 46.7 km/h 50 % 0 mm
12:26 -0.3 °C -9.7 °C 1012.8 hPa WSW 10.3 km/h 46.7 km/h 49 % 0 mm
12:31 -0.3 °C -9.7 °C 1012.8 hPa WSW 12.6 km/h 46.7 km/h 49 % 0 mm
12:36 -0.2 °C -9.3 °C 1012.8 hPa WSW 12.4 km/h 46.7 km/h 50 % 0 mm
12:41 -0.2 °C -9.9 °C 1012.8 hPa WSW 8.4 km/h 46.7 km/h 48 % 0 mm
12:46 -0.2 °C -9.9 °C 1012.8 hPa West 5.1 km/h 46.7 km/h 48 % 0 mm
12:51 -0.1 °C -9.6 °C 1012.8 hPa WSW 9 km/h 46.7 km/h 49 % 0 mm
12:56 -0.1 °C -9.5 °C 1012.4 hPa SW 8.5 km/h 46.7 km/h 49 % 0 mm
13:01 0.1 °C -9.4 °C 1012.4 hPa West 10.1 km/h 46.7 km/h 49 % 0 mm
13:06 0.1 °C -9.6 °C 1012.4 hPa WSW 12.7 km/h 46.7 km/h 48 % 0 mm
13:12 0.2 °C -9.6 °C 1012.1 hPa West 3.7 km/h 46.7 km/h 48 % 0 mm
13:17 0.2 °C -9.5 °C 1012.1 hPa SW 8.7 km/h 46.7 km/h 48 % 0 mm
13:22 0.2 °C -9.8 °C 1012.1 hPa WNW 4.8 km/h 46.7 km/h 47 % 0 mm
13:27 0.3 °C -9.4 °C 1012.1 hPa SW 3.9 km/h 46.7 km/h 48 % 0 mm
13:32 0.3 °C -9.4 °C 1012.1 hPa NW 6 km/h 46.7 km/h 48 % 0 mm
13:37 0.3 °C -9.7 °C 1012.1 hPa WNW 7.6 km/h 46.7 km/h 47 % 0 mm
13:42 0.3 °C -9.4 °C 1012.1 hPa West 10.5 km/h 46.7 km/h 48 % 0 mm
13:47 0.3 °C -9.7 °C 1012.4 hPa WNW 8 km/h 46.7 km/h 47 % 0 mm
13:52 0.4 °C -9.6 °C 1012.4 hPa WSW 13.8 km/h 46.7 km/h 47 % 0 mm
13:57 0.4 °C -9.6 °C 1012.4 hPa WSW 9 km/h 46.7 km/h 47 % 0 mm
14:02 0.4 °C -9.6 °C 1012.4 hPa SW 10.9 km/h 46.7 km/h 47 % 0 mm
14:07 0.3 °C -9.7 °C 1012.4 hPa West 5 km/h 46.7 km/h 47 % 0 mm
14:12 0.4 °C -9.4 °C 1012.4 hPa WSW 9.3 km/h 46.7 km/h 48 % 0 mm
14:18 0.4 °C -9.6 °C 1012.4 hPa SW 12.2 km/h 46.7 km/h 47 % 0 mm
14:23 0.3 °C -9.4 °C 1012.4 hPa WSW 8.9 km/h 46.7 km/h 48 % 0 mm
14:28 0.3 °C -9.7 °C 1012.4 hPa WSW 4.8 km/h 46.7 km/h 47 % 0 mm
14:33 0.2 °C -9.8 °C 1012.4 hPa WNW 5.1 km/h 46.7 km/h 47 % 0 mm
14:38 0.2 °C -9.5 °C 1012.4 hPa WNW 5 km/h 46.7 km/h 48 % 0 mm
14:43 0.2 °C -9.6 °C 1012.4 hPa West 5.6 km/h 46.7 km/h 48 % 0 mm
14:48 0.2 °C -9.3 °C 1012.1 hPa West 4.2 km/h 46.7 km/h 49 % 0 mm
14:53 0.2 °C -9.3 °C 1012.4 hPa WSW 8.9 km/h 46.7 km/h 49 % 0 mm
14:58 0.1 °C -9.6 °C 1012.4 hPa NW 7.9 km/h 46.7 km/h 48 % 0 mm
15:03 0.1 °C -9.7 °C 1012.4 hPa WSW 8.4 km/h 46.7 km/h 48 % 0 mm
15:08 0.1 °C -9.9 °C 1012.8 hPa WSW 6.8 km/h 46.7 km/h 47 % 0 mm
15:13 0.1 °C -9.7 °C 1012.4 hPa WSW 9 km/h 46.7 km/h 48 % 0 mm
15:18 0 °C -9.7 °C 1012.8 hPa SW 10.3 km/h 46.7 km/h 48 % 0 mm
15:23 0 °C -9.4 °C 1012.4 hPa WSW 5 km/h 46.7 km/h 49 % 0 mm
15:28 0 °C -9.7 °C 1012.4 hPa WSW 3.4 km/h 46.7 km/h 48 % 0 mm
15:34 0 °C -9.4 °C 1012.4 hPa WSW 5.5 km/h 46.7 km/h 49 % 0 mm
15:39 0 °C -9.7 °C 1012.4 hPa WSW 5.3 km/h 46.7 km/h 48 % 0 mm
15:44 -0.1 °C -9.8 °C 1012.8 hPa SSW 7.6 km/h 46.7 km/h 48 % 0 mm
15:49 -0.1 °C -9.8 °C 1012.4 hPa WSW 3.2 km/h 46.7 km/h 48 % 0 mm
15:54 -0.1 °C -9.8 °C 1012.4 hPa SW 3.5 km/h 46.7 km/h 48 % 0 mm
15:59 -0.1 °C -9.5 °C 1012.4 hPa WSW 7.9 km/h 46.7 km/h 49 % 0 mm
16:04 -0.1 °C -9.8 °C 1012.4 hPa WSW 4.7 km/h 46.7 km/h 48 % 0 mm
16:09 -0.1 °C -9.8 °C 1012.4 hPa WSW 8.2 km/h 46.7 km/h 48 % 0 mm
16:14 -0.2 °C -9.6 °C 1012.4 hPa West 5.6 km/h 46.7 km/h 49 % 0 mm
16:19 -0.2 °C -9.6 °C 1012.4 hPa WSW 9.5 km/h 46.7 km/h 49 % 0 mm
16:24 -0.2 °C -9.7 °C 1012.4 hPa WSW 4.8 km/h 11.3 km/h 49 % 0 mm
16:29 -0.2 °C -9.9 °C 1012.4 hPa WSW 4.8 km/h 11.3 km/h 48 % 0 mm
16:34 -0.3 °C -9.7 °C 1011.7 hPa WSW 2.7 km/h 46.7 km/h 49 % 0 mm
16:39 -0.3 °C -9.7 °C 1012.1 hPa SSW 2.3 km/h 46.7 km/h 49 % 0 mm
16:44 -0.3 °C -9.5 °C 1011.7 hPa WSW 3.9 km/h 46.7 km/h 50 % 0 mm
16:49 -0.3 °C -9.8 °C 1012.1 hPa SW 2.6 km/h 46.7 km/h 49 % 0 mm
16:54 -0.4 °C -9.6 °C 1012.1 hPa SW 2.3 km/h 46.7 km/h 50 % 0 mm
16:59 -0.4 °C -9.8 °C 1012.1 hPa WSW 1.8 km/h 46.7 km/h 49 % 0 mm
17:04 -0.4 °C -9.6 °C 1012.4 hPa SW 3.4 km/h 46.7 km/h 50 % 0 mm
17:10 -0.4 °C -9.6 °C 1012.4 hPa SW 2.4 km/h 46.7 km/h 50 % 0 mm
17:15 -0.4 °C -9.6 °C 1012.4 hPa SW 1.3 km/h 46.7 km/h 50 % 0 mm
17:20 -0.4 °C -9.6 °C 1012.4 hPa SW 1 km/h 46.7 km/h 50 % 0 mm
17:25 -0.4 °C -9.3 °C 1012.4 hPa SW 1.9 km/h 46.7 km/h 51 % 0 mm
17:30 -0.4 °C -9.3 °C 1012.4 hPa SW 1.4 km/h 46.7 km/h 51 % 0 mm
17:35 -0.4 °C -9.1 °C 1012.4 hPa SW 1 km/h 46.7 km/h 52 % 0 mm
17:40 -0.4 °C -9.1 °C 1012.8 hPa SW 0.5 km/h 46.7 km/h 52 % 0 mm
17:45 -0.4 °C -9.1 °C 1012.4 hPa SW 0.6 km/h 46.7 km/h 52 % 0 mm
17:50 -0.5 °C -9.2 °C 1012.8 hPa SW 1.9 km/h 46.7 km/h 52 % 0 mm
17:55 -0.5 °C -9.2 °C 1012.8 hPa Calm   46.7 km/h 52 % 0 mm
18:00 -0.6 °C -9 °C 1013.1 hPa SW 0.6 km/h 46.7 km/h 53 % 0 mm
18:05 -0.6 °C -9 °C 1013.1 hPa SW 0.5 km/h 46.7 km/h 53 % 0 mm
18:10 -0.7 °C -9.1 °C 1013.1 hPa SW 1.9 km/h 46.7 km/h 53 % 0 mm
18:15 -0.7 °C -9.1 °C 1013.1 hPa SW 1.6 km/h 46.7 km/h 53 % 0 mm
18:20 -0.8 °C -9.2 °C 1013.1 hPa SW 1.8 km/h 46.7 km/h 53 % 0 mm
18:25 -0.8 °C -9.2 °C 1013.1 hPa SW 2.9 km/h 46.7 km/h 53 % 0 mm
18:30 -0.8 °C -9 °C 1013.1 hPa SW 3.2 km/h 46.7 km/h 54 % 0 mm
18:36 -0.8 °C -9 °C 1013.1 hPa SW 2.3 km/h 46.7 km/h 54 % 0 mm
18:41 -0.9 °C -9.1 °C 1013.1 hPa SW 2.6 km/h 46.7 km/h 54 % 0 mm
18:46 -0.9 °C -9.1 °C 1013.4 hPa SSW 5.1 km/h 46.7 km/h 54 % 0 mm
18:51 -0.8 °C -9 °C 1013.1 hPa SW 1.1 km/h 46.7 km/h 54 % 0 mm
18:56 -0.8 °C -9 °C 1013.1 hPa SSW 6.1 km/h 46.7 km/h 54 % 0 mm
19:01 -0.8 °C -9 °C 1013.1 hPa SSW 2.3 km/h 46.7 km/h 54 % 0 mm
19:06 -0.8 °C -8.9 °C 1013.1 hPa SSW 1.8 km/h 46.7 km/h 54 % 0 mm
19:11 -0.7 °C -8.9 °C 1013.1 hPa SW 1.6 km/h 46.7 km/h 54 % 0 mm
19:16 -0.7 °C -8.7 °C 1013.1 hPa SW 5.3 km/h 46.7 km/h 55 % 0 mm
19:21 -0.7 °C -8.8 °C 1013.4 hPa SW 5.3 km/h 46.7 km/h 54 % 0 mm
19:26 -0.7 °C -8.8 °C 1013.1 hPa WSW 0.2 km/h 46.7 km/h 54 % 0 mm
19:31 -0.6 °C -8.6 °C 1013.1 hPa SW 1.1 km/h 46.7 km/h 55 % 0 mm
19:36 -0.6 °C -8.8 °C 1012.8 hPa South 1.9 km/h 46.7 km/h 54 % 0 mm
19:41 -0.6 °C -8.8 °C 1013.1 hPa SSW 3.7 km/h 46.7 km/h 54 % 0 mm
19:46 -0.6 °C -8.6 °C 1013.1 hPa SW 2.6 km/h 46.7 km/h 55 % 0 mm
19:51 -0.6 °C -8.8 °C 1013.4 hPa SSW 1.1 km/h 46.7 km/h 54 % 0 mm
19:57 -0.6 °C -8.8 °C 1013.4 hPa SW 2.7 km/h 46.7 km/h 54 % 0 mm
20:02 -0.6 °C -8.6 °C 1013.8 hPa West 3.5 km/h 46.7 km/h 55 % 0 mm
20:07 -0.6 °C -8.6 °C 1013.8 hPa SW 3.7 km/h 46.7 km/h 55 % 0 mm
20:12 -0.6 °C -8.6 °C 1013.8 hPa SW 3.9 km/h 46.7 km/h 55 % 0 mm
20:17 -0.6 °C -8.3 °C 1013.8 hPa WSW 6.1 km/h 46.7 km/h 56 % 0 mm
20:22 -0.5 °C -8.2 °C 1013.8 hPa SSW 1.4 km/h 46.7 km/h 56 % 0 mm
20:27 -0.5 °C -8.2 °C 1013.4 hPa WSW 0.2 km/h 46.7 km/h 56 % 0 mm
20:32 -0.4 °C -8.2 °C 1013.1 hPa WSW 1.3 km/h 46.7 km/h 56 % 0 mm
20:37 -0.4 °C -8.2 °C 1013.1 hPa SW 0.3 km/h 46.7 km/h 56 % 0 mm
20:42 -0.4 °C -8.3 °C 1013.4 hPa SW 1 km/h 46.7 km/h 55 % 0 mm
20:47 -0.3 °C -8.3 °C 1013.8 hPa SW 3.1 km/h 46.7 km/h 55 % 0 mm
20:52 -0.3 °C -8.3 °C 1013.8 hPa WSW 2.1 km/h 46.7 km/h 55 % 0 mm
20:57 -0.3 °C -8.3 °C 1013.8 hPa WSW 1.3 km/h 46.7 km/h 55 % 0 mm
21:03 -0.3 °C -8.2 °C 1013.4 hPa SW 2.4 km/h 46.7 km/h 55 % 0 mm
21:08 -0.3 °C -8.2 °C 1013.8 hPa SW 6.1 km/h 46.7 km/h 55 % 0 mm
21:13 -0.2 °C -8.2 °C 1013.8 hPa SW 6.9 km/h 46.7 km/h 55 % 0 mm
21:18 -0.2 °C -8.2 °C 1013.8 hPa West 2.7 km/h 46.7 km/h 55 % 0 mm
21:23 -0.2 °C -8.1 °C 1013.8 hPa WSW 4.5 km/h 46.7 km/h 55 % 0 mm
21:28 -0.2 °C -8.1 °C 1013.8 hPa WSW 2.7 km/h 46.7 km/h 55 % 0 mm
21:33 -0.2 °C -8.1 °C 1013.8 hPa SW 1.8 km/h 46.7 km/h 55 % 0 mm
21:39 -0.2 °C -8.1 °C 1013.8 hPa SSW 6.4 km/h 46.7 km/h 55 % 0 mm
21:44 -0.1 °C -8.3 °C 1013.4 hPa SSW 4.5 km/h 46.7 km/h 54 % 0 mm
21:49 -0.1 °C -8.3 °C 1013.4 hPa SSW 5.1 km/h 46.7 km/h 54 % 0 mm
21:54 -0.1 °C -8.1 °C 1013.4 hPa SW 4 km/h 46.7 km/h 55 % 0 mm
21:59 -0.1 °C -8.1 °C 1013.4 hPa South 3.5 km/h 46.7 km/h 55 % 0 mm
22:04 -0.1 °C -8.1 °C 1013.4 hPa WSW 7.6 km/h 46.7 km/h 55 % 0 mm
22:09 0 °C -8 °C 1013.8 hPa SW 4.2 km/h 46.7 km/h 55 % 0 mm
22:14 0 °C -8 °C 1013.4 hPa SW 3.2 km/h 11.3 km/h 55 % 0 mm
22:19 0.1 °C -7.7 °C 1013.4 hPa WSW 9.7 km/h 14.5 km/h 56 % 0 mm
22:24 0.1 °C -7.7 °C 1013.4 hPa SW 3.2 km/h 8 km/h 56 % 0 mm
22:29 0.1 °C -7.7 °C 1013.4 hPa SW 4.8 km/h 12.9 km/h 56 % 0 mm
22:34 0.1 °C -7.7 °C 1013.1 hPa SW 4.8 km/h 12.9 km/h 56 % 0 mm
22:39 0.1 °C -7.6 °C 1013.1 hPa SW 3.2 km/h 9.7 km/h 56 % 0 mm
22:44 0.1 °C -7.7 °C 1013.1 hPa Calm   8 km/h 56 % 0 mm
22:49 0.1 °C -7.7 °C 1013.1 hPa WSW 3.2 km/h 16.1 km/h 56 % 0 mm
22:54 0.1 °C -7.7 °C 1013.1 hPa WSW 4.8 km/h 9.7 km/h 56 % 0 mm
22:59 0.1 °C -7.7 °C 1013.4 hPa SSW 3.7 km/h 46.7 km/h 56 % 0 mm
23:04 0.1 °C -7.7 °C 1013.4 hPa SW 1.6 km/h 9.7 km/h 56 % 0 mm
23:09 0.1 °C -7.7 °C 1013.4 hPa SW 3.2 km/h 8 km/h 56 % 0 mm
23:14 0.1 °C -7.7 °C 1013.4 hPa SW 3.2 km/h 9.7 km/h 56 % 0 mm
23:19 0 °C -7.7 °C 1013.4 hPa SW 3.9 km/h 46.7 km/h 56 % 0 mm
23:24 0 °C -7.5 °C 1013.4 hPa SW 3.2 km/h 8 km/h 57 % 0 mm
23:29 0 °C -7.5 °C 1013.1 hPa SW 1.6 km/h 6.4 km/h 57 % 0 mm
23:34 0 °C -7.3 °C 1013.1 hPa SSW 1.6 km/h 6.4 km/h 58 % 0 mm
23:39 -0.1 °C -7.6 °C 1013.1 hPa Calm   3.2 km/h 57 % 0 mm
23:44 -0.1 °C -7.6 °C 1013.1 hPa SSW 0.6 km/h 46.7 km/h 57 % 0 mm
23:49 -0.1 °C -7.6 °C 1013.1 hPa SSW 0.8 km/h 46.7 km/h 57 % 0 mm
23:54 -0.1 °C -7.6 °C 1013.1 hPa SSW 0.6 km/h 46.7 km/h 57 % 0 mm
23:59 -0.1 °C -7.6 °C 1013.1 hPa SW 0.6 km/h 46.7 km/h 57 % 0 mm
Crab Meadow Weather
Compliments of Weather Underground - 3 mb

Script developed by  Jim McMurry - jmcmurry@mwt.net Adapted for the template by  Wim van der Kuil - Leuven-Template.eu

Astronomy: One year on Pluto is equal to 248 Earth years.